Location: Newark
(35.7127°N, 139.7618°E)
Time: 20:02:25
(UTC+00:00)

Hubble Space Telescope - Visible Passes

Search period start: 11 August 2020 00:00
Search period end: 21 August 2020 00:00
Orbit: 536 x 540 km, 28.5° (Epoch: 11 August)

Date Brightness Start Highest point End Pass type
(mag) Time Alt. Az. Time Alt. Az. Time Alt. Az.
11 Aug 2.4 18:21:08 20° S 18:21:27 21° SSE 18:24:34 10° ESE visible
12 Aug 2.3 18:10:59 23° SSE 18:10:59 23° SSE 18:13:57 10° ESE visible
13 Aug 2.4 18:00:52 23° SSE 18:00:52 23° SSE 18:03:18 10° ESE visible
14 Aug 2.6 17:50:47 20° SE 17:50:47 20° SE 17:52:37 10° ESE visible
14 Aug 2.0 19:26:19 10° WSW 19:29:51 28° S 19:33:23 10° SE visible
15 Aug 3.0 17:40:46 16° SE 17:40:46 16° SE 17:41:54 10° ESE visible
15 Aug 2.0 19:16:06 12° WSW 19:19:04 26° S 19:22:32 10° SE visible
16 Aug 3.4 17:30:49 12° ESE 17:30:49 12° ESE 17:31:10 10° ESE visible
16 Aug 2.1 19:06:10 16° SW 19:08:17 24° S 19:11:37 10° SE visible
17 Aug 2.2 18:56:19 19° SW 18:57:30 21° SSW 19:00:39 10° SE visible
18 Aug 2.3 18:46:35 19° SSW 18:46:42 19° SSW 18:49:37 10° SSE visible
19 Aug 2.8 18:36:58 15° S 18:36:58 15° S 18:38:28 10° SSE visible
